Location: Newark
(43.0000°N, 1.6781°W)
Time: 22:32:54
(UTC+00:00)

Vanguard 1 - Pass Details

Date: 03 December 2021
Orbit: 652 x 3830 km, 34.2° (Epoch: 16 January)

Event Time Altitude Azimuth Distance (km) Brightness Sun altitude
Exits shadow 05:09:14 27° 263° (W) 5,073 13.1 -23.3°
Maximum altitude 05:20:30 50° 208° (SSW) 3,305 12.5 -21.3°
Drops below altitude 10° 05:32:27 10° 137° (SE) 4,272 14.1 -19.1°
Sets 05:35:16 0° 132° (SE) 4,925 14.7 -18.6°
